Regional Weather Roundup
Issued by NWS Kansas City/Pleasant Hill, MO

Home | Current Version | Previous Version | Graphics & Text | Print | Product List | Glossary Off
Versions: 1 2 3 4 5 6 7 8 9 10 11 12 13 14 15 16 17 18 19 20 21 22 23 24 25 26 27 28 29 30 31 32 33 34 35 36 37 38 39 40 41 42 43 44 45 46 47 48 49 50

000
ASUS43 KEAX 310110
RWREAX

WEATHER ROUNDUP FOR EASTERN KANSAS AND NORTHWEST MISSOURI
NATIONAL WEATHER SERVICE KANSAS CITY/PLEASANT HILL MO
800 PM CDT THU JUL 30 2015

KSZ040-057-103>105-MOZ028-029-037-043-310200-
...KANSAS CITY METROPOLITAN AREA...

CITY           SKY/WX    TMP DP  RH WIND       PRES   REMARKS
K.C. INTL      PTCLDY    83  67  58 CALM      30.14S
K.C. DOWNTOWN  PTCLDY    82  59  45 S6        30.12S
LEES SUMMIT    CLEAR     81  64  56 CALM      30.14F
OLATHE - IXD   PTCLDY    81  58  45 E5        30.15S
OLATHE - OJC   PTCLDY    81  59  47 CALM      30.14S
LAWRENCE       PTCLDY    81  71  71 CALM      30.13S

$$

MOZ001>008-011>017-020>025-030>033-038>040-044>046-053-054-310200-
...NORTHERN AND CENTRAL MISSOURI...

CITY           SKY/WX    TMP DP  RH WIND       PRES   REMARKS
ST. JOSEPH     CLEAR     81  70  69 S5        30.12S
MOSBY          CLEAR     82  63  51 CALM      30.12S
WARRENSBURG    CLEAR     79  68  69 CALM      30.13S
WHITEMAN AFB   CLEAR     82  67  60 CALM      30.12F
CLINTON        PTCLDY    81  66  61 CALM      30.14S
SEDALIA        PTCLDY    81  65  58 S3        30.14F
WARSAW         NOT AVBL
CHILLICOTHE      N/A     81  69  67 CALM      30.14R
KIRKSVILLE     CLEAR     80  66  62 W3        30.13S

$$

MOZ041-047>049-056>058-063>065-088>090-097-310200-
...EASTERN AND SOUTHERN MISSOURI...

CITY           SKY/WX    TMP DP  RH WIND       PRES   REMARKS
ST. LOUIS INTL PTCLDY    84  62  47 NW6       30.10F
SPIRIT OF STL  PTCLDY    78  71  79 CALM      30.10R
COLUMBIA       PTCLDY    81  68  64 NW5       30.14R
JEFFERSON CITY PTCLDY    81  67  62 CALM      30.11S
ROLLA          PTCLDY    80  64  58 CALM      30.13F
OSAGE BEACH    CLEAR     75  70  83 CALM      30.14S
SPRINGFIELD    CLEAR     80  64  58 NE9       30.14S
BRANSON        MOCLDY    79  68  69 E5        30.15S
JOPLIN         CLOUDY    81  65  58 NE3       30.13S
WEST PLAINS    PTCLDY    79  66  64 CALM      30.16S

$$

IAZ060-094-KSZ022-034>040-054-083-096-NEZ052-066-093-310200-
...KANSAS...SOUTHEAST NEBRASKA AND IOWA...

CITY           SKY/WX    TMP DP  RH WIND       PRES   REMARKS
TOPEKA         CLEAR     82  67  60 CALM      30.13S
MANHATTAN      PTCLDY    84  63  49 SE3       30.12S
EMPORIA        PTCLDY    79  64  60 E5        30.14S
CHANUTE        MOCLDY    81  64  56 CALM      30.13S
WICHITA        PTCLDY    81  69  67 SE12      30.13S
OMAHA          PTCLDY    86  66  51 NE3       30.10S
LINCOLN        CLEAR     84  62  47 S8        30.12S
FALLS CITY     CLEAR     82  67  60 S5        30.12S
LAMONI         CLEAR     81  66  60 SW6       30.13S
DES MOINES     PTCLDY    82  65  56 W6        30.09S

$$




USA.gov is the U.S. government's official web portal to all federal, state and local government web resources and services.